User: anonymous   Login
Location: Unspecified
(0.0000°N, 0.0000°E)
Time: 08:28:42
(UTC+00:00)
Language:

Vela 3B - Orbit

View from above orbital plane
View from above orbital plane
View from above satellite
View from above satellite

Ground track
Ground track

The orbit data is extracted from the following two-line orbital elements,

1 01459U 65058B   17264.86062682 -.00001426  00000-0  00000+0 0  9994
2 01459  12.5289  54.9389 4781805 316.0468 357.4679  0.21464367 41219
Epoch (UTC): 21 September 2017 20:39:18
Eccentricity: 0.4781805
inclination: 12.5289°
perigee height: 55107 km
apogee height: 167794 km
right ascension of ascending node: 54.9389°
argument of perigee: 316.0468°
revolutions per day: 0.21464367
mean anomaly at epoch: 357.4679°
orbit number at epoch: 4121

The dashed part of the orbit path shows where the satellite is in the earth's shadow,  

DLR